sat.trackr.live / text

‹ back to catalog

STARLINK-38007

NORAD 69723 · 2026-147V

PAYLOAD ACTIVE UNKNOWN

§ Identity

Operator
Country
US
Launch date
2026-06-28
Launch site
AFWTR
Launch vehicle
Mass (kg)
RCS (m²)

Purposes: comms

External: N2YO · Heavens-Above · Gunter

§ Orbital elements

Epoch: 2026-09-19T19:50:33.014400Z

Period
93.91 min
Inclination
97.2825°
Eccentricity
0.0000251
Mean motion
15.33457206 rev/d
Perigee alt
465.3 km
Apogee alt
465.7 km
Semi-major
6,843.6 km
B*
3.5699e-4
RAAN
299.2418°
Arg perigee
272.0382°
Mean anomaly
88.0832°
Rev number
1,413

§ Raw data

STARLINK-380071 69723U 26147V   26262.82677100  .00011472  00000+0  35699-3 0  99952 69723  97.2825 299.2418 0000251 272.0382  88.0832 15.33457206 14133

JSON: /api/v1/satellites/69723 · /tle

For live sub-satellite position, see the globe view (requires WebGL).

§ Visibility from observer

Set your observer location to see the next 7 days of passes ≥ 10°. The values pass through the URL so the page stays shareable.

No JS? Fill the form by hand. The geolocation button needs JavaScript.